Location: B?ogocice
(50.2413°N, 20.2361°E)
Time: 03:31:07
(UTC+00:00)

ALOS - Pass Details

Date: 24 September 2024
Orbit: 670 x 673 km, 98.0° (Epoch: 04 October)

Event Time Altitude Azimuth Distance (km) Brightness Sun altitude
Rises 23:55:47 0° 32° (NNE) 3,029 6.6 -37.2°
Reaches altitude 10° 23:59:32 10° 63° (ENE) 2,107 5.3 -36.9°
Enters shadow 00:00:28 12° 75° (ENE) 2,003 5.1 -36.8°
